Farmville, Virginia, United States (23901)
Lat: 37.30N, Lon: 78.39W
Wx Zone: VAZ060
Local Info
Past Weather Observations for Today

NOTE: This archive is for the closest National Weather Service station to Farmville. Information may differ from the station used for current weather conditions.

Click here for Long-term Archive

Time Weather Temperature Dewpoint Humidity Pressure Winds Precip Visibility
19:55
Clear
79°F / 26°C 66°F / 19°C 65% 29.89 in
(1012 mb)
Calm - 10SM
19:35
Clear
82°F / 28°C 64°F / 18°C 55% 29.89 in
(1012 mb)
Calm - 10SM
19:15
Clear
84°F / 29°C 64°F / 18°C 51% 29.89 in
(1012 mb)
SW 3.5 mph
(SW 6 kph)
- 10SM
18:55
Clear
84°F / 29°C 64°F / 18°C 51% 29.86 in
(1011 mb)
SW 4.6 mph
(SW 7 kph)
- 10SM
18:35
Clear
86°F / 30°C 64°F / 18°C 49% 29.86 in
(1011 mb)
SSE 5.8 mph
(SSE 9 kph)
- 10SM
18:15
Clear
88°F / 31°C 64°F / 18°C 46% 29.86 in
(1011 mb)
S 6.9 mph
(S 11 kph)
- 10SM
17:55
Clear
88°F / 31°C 64°F / 18°C 46% 29.86 in
(1011 mb)
S 6.9 mph
(S 11 kph)
- 10SM
17:35
Partly Cloudy
90°F / 32°C 63°F / 17°C 41% 29.86 in
(1011 mb)
SSE 6.9 mph
(SSE 11 kph)
- 10SM
17:15
Partly Cloudy
90°F / 32°C 61°F / 16°C 38% 29.86 in
(1011 mb)
S 6.9 mph
(S 11 kph)
- 10SM
16:55
Partly Cloudy
91°F / 33°C 61°F / 16°C 36% 29.86 in
(1011 mb)
SSE 11.5 mph
(SSE 19 kph)
- 10SM
14:15
Clear
93°F / 34°C 57°F / 14°C 30% 29.86 in
(1011 mb)
SW 9.2 mph
(SW 15 kph)
- 10SM
13:50
Partly Cloudy
91°F / 33°C 57°F / 14°C 32% 29.89 in
(1012 mb)
SW 6.9 mph
(SW 11 kph)
- 10SM
13:35
Partly Cloudy
93°F / 34°C 57°F / 14°C 30% 29.89 in
(1012 mb)
SSW 9.2 mph
(SSW 15 kph)
- 10SM
13:15
Clear
91°F / 33°C 57°F / 14°C 32% 29.89 in
(1012 mb)
S 8.1 mph
(S 13 kph)
- 10SM
12:55
Clear
91°F / 33°C 57°F / 14°C 32% 29.89 in
(1012 mb)
W 5.8 mph
(W 9 kph)
- 10SM
12:35
Clear
90°F / 32°C 57°F / 14°C 33% 29.89 in
(1012 mb)
SW 3.5 mph
(SW 6 kph)
- 10SM
12:15
Clear
90°F / 32°C 59°F / 15°C 36% 29.89 in
(1012 mb)
SSW 6.9 mph
(SSW 11 kph)
- 10SM
11:55
Clear
90°F / 32°C 61°F / 16°C 38% 29.92 in
(1013 mb)
SSW 6.9 mph
(SSW 11 kph)
- 10SM
11:35
Clear
90°F / 32°C 61°F / 16°C 38% 29.92 in
(1013 mb)
SSW 8.1 mph
(SSW 13 kph)
- 10SM
11:15
Clear
88°F / 31°C 61°F / 16°C 40% 29.92 in
(1013 mb)
SSW 5.8 mph
(SSW 9 kph)
- 10SM
10:55
Clear
88°F / 31°C 63°F / 17°C 43% 29.92 in
(1013 mb)
SSE 9.2 mph
(SSE 15 kph)
- 10SM
10:35
Clear
88°F / 31°C 64°F / 18°C 46% 29.92 in
(1013 mb)
SW 10.4 mph
(SW 17 kph)
- 10SM
10:15
Clear
86°F / 30°C 64°F / 18°C 49% 29.92 in
(1013 mb)
SSW 5.8 mph
(SSW 9 kph)
- 10SM
09:55
Clear
86°F / 30°C 64°F / 18°C 49% 29.92 in
(1013 mb)
SW 6.9 mph
(SW 11 kph)
- 10SM
09:35
Clear
82°F / 28°C 64°F / 18°C 55% 29.92 in
(1013 mb)
SW 4.6 mph
(SW 7 kph)
- 10SM
09:15
Partly Cloudy
81°F / 27°C 64°F / 18°C 58% 29.92 in
(1013 mb)
SW 8.1 mph
(SW 13 kph)
- 10SM
08:55
Clear
79°F / 26°C 64°F / 18°C 61% 29.92 in
(1013 mb)
S 6.9 mph
(S 11 kph)
- 10SM
08:35
Clear
77°F / 25°C 63°F / 17°C 61% 29.92 in
(1013 mb)
S 4.6 mph
(S 7 kph)
- 10SM
08:15
Clear
73°F / 23°C 63°F / 17°C 69% 29.92 in
(1013 mb)
Calm - 10SM
07:55
Clear
72°F / 22°C 61°F / 16°C 69% 29.92 in
(1013 mb)
S 3.5 mph
(S 6 kph)
- 10SM
07:35
Clear
70°F / 21°C 66°F / 19°C 88% 29.92 in
(1013 mb)
S 4.6 mph
(S 7 kph)
- 10SM
07:15
Clear
68°F / 20°C 66°F / 19°C 94% 29.92 in
(1013 mb)
Calm - 10SM
06:55
Clear
64°F / 18°C 64°F / 18°C 100% 29.92 in
(1013 mb)
Calm - 10SM
06:35
Clear
63°F / 17°C 63°F / 17°C 100% 29.92 in
(1013 mb)
Calm - 10SM
06:15
Clear
61°F / 16°C 61°F / 16°C 100% 29.92 in
(1013 mb)
Calm - 10SM
05:55
Clear
59°F / 15°C 59°F / 15°C 100% 29.92 in
(1013 mb)
Calm - 10SM
05:35
Clear
59°F / 15°C 59°F / 15°C 100% 29.92 in
(1013 mb)
Calm - 10SM
05:15
Clear
59°F / 15°C 59°F / 15°C 100% 29.92 in
(1013 mb)
Calm - 7SM
04:55
Clear
59°F / 15°C 59°F / 15°C 100% 29.89 in
(1012 mb)
Calm - 10SM
04:35
Clear
57°F / 14°C 57°F / 14°C 100% 29.89 in
(1012 mb)
Calm - 10SM
04:15
Clear
59°F / 15°C 59°F / 15°C 100% 29.89 in
(1012 mb)
Calm - 10SM
03:55
Clear
57°F / 14°C 57°F / 14°C 100% 29.92 in
(1013 mb)
Calm - 10SM
03:35
Clear
57°F / 14°C 57°F / 14°C 100% 29.92 in
(1013 mb)
Calm - 7SM
03:15
Clear
Fog And Mist
57°F / 14°C 57°F / 14°C 100% 29.92 in
(1013 mb)
S 3.5 mph
(S 6 kph)
- 3SM
02:55
Clear
59°F / 15°C 59°F / 15°C 100% 29.92 in
(1013 mb)
Calm - 7SM
02:35
Clear
59°F / 15°C 59°F / 15°C 100% 29.92 in
(1013 mb)
Calm - 7SM
02:15
Clear
61°F / 16°C 61°F / 16°C 100% 29.92 in
(1013 mb)
Calm - 10SM
01:55
Obscured
Fog And Mist
59°F / 15°C 59°F / 15°C 100% 29.92 in
(1013 mb)
Calm - 1 1/4SM
01:35
Clear
Fog And Mist
61°F / 16°C 61°F / 16°C 100% 29.92 in
(1013 mb)
Calm - 3SM
01:15
Clear
61°F / 16°C 61°F / 16°C 100% 29.95 in
(1014 mb)
Calm - 7SM
00:55
Clear
Fog And Mist
61°F / 16°C 61°F / 16°C 100% 29.95 in
(1014 mb)
Calm - 5SM
00:35
Clear
Fog And Mist
59°F / 15°C 59°F / 15°C 100% 29.95 in
(1014 mb)
Calm - 3SM
00:15
Clear
61°F / 16°C 61°F / 16°C 100% 29.95 in
(1014 mb)
SSE 4.6 mph
(SSE 7 kph)
- 7SM
Time Weather Temperature Dewpoint Humidity Pressure Winds Precip Visibility


Weather for websites

WeatherForYou.com, LLC is not responsible for any damages or problems caused by this service. Current weather conditions are obtained from the closest station including government and personal stations which may have varying degrees of accuracy. Weather forecasts are derived from the NOAA NDFD. Like all things, this site belongs to Jesus Christ... He just trusts us to maintain it. If you have any questions or comments email webmaster@weatherforyou.com

Copyright © 2015, WeatherForYou.com LLC. All rights reserved.